Theta_e
310 310 311 311 311 311 311 312 312 312 312 312 313 314 315 316 314 310 311 304 306 314 317 317 318 318 317 316 317 312 317 315 315 313 314 313 315 313 313 314 312 312 311 313 318
310 310 310 310 309 310 310 310 310 310 311 312 312 314 313 315 310 312 305 305 308 317 316 319 317 316 316 316 317 315 313 313 312 312 314 316 316 315 316 314 315 314 313 314 314
308 308 308 308 308 308 308 308 309 309 310 311 311 312 312 313 309 303 310 306 317 321 314 314 316 317 317 315 317 315 314 312 314 314 317 318 316 315 314 315 314 315 314 313 314
307 307 307 306 306 306 307 307 307 308 309 310 310 310 312 310 303 312 313 312 320 319 315 315 316 317 317 318 315 318 316 316 317 317 317 317 315 316 314 316 313 313 313 313 313
306 305 305 305 305 305 305 306 307 307 308 308 309 309 312 311 307 305 312 312 317 321 314 316 316 316 317 315 316 317 316 315 315 316 315 314 314 314 314 313 312 312 312 313 312
304 304 303 303 303 304 305 306 306 307 307 307 308 309 310 307 305 305 314 321 321 320 314 315 316 315 315 316 315 315 315 314 313 314 314 315 315 314 313 313 313 312 312 312 312
303 302 302 302 302 304 305 306 307 307 307 307 308 308 309 308 306 313 320 320 319 318 314 316 316 316 315 317 315 316 316 313 312 313 314 313 314 314 313 311 311 311 311 312 311
302 301 301 301 302 304 305 305 306 307 308 309 309 308 309 308 308 307 316 322 320 315 315 316 317 316 316 315 314 316 312 314 309 311 312 313 309 312 311 312 312 312 311 310 311
301 301 301 301 303 304 305 306 308 309 310 310 309 309 309 308 310 308 319 317 317 316 317 316 315 315 316 316 315 313 310 309 310 310 312 314 314 313 311 311 311 310 309 309 310
301 300 300 301 302 303 305 306 309 311 311 310 310 309 307 306 308 308 319 315 313 313 314 315 314 315 316 317 314 312 313 312 310 311 312 313 312 311 311 310 310 310 309 307 308
300 300 300 301 302 304 305 305 301 302 305 308 308 307 308 309 308 306 314 313 312 313 316 315 318 317 316 315 311 309 311 311 311 310 310 308 308 310 311 309 308 308 307 305 305
300 299 300 300 302 303 304 303 302 302 303 303 303 304 307 308 310 308 312 313 313 315 312 316 317 313 312 313 315 314 314 313 310 311 312 310 312 308 308 309 308 309 308 303 303
298 298 299 300 301 301 301 295 295 303 304 302 303 304 303 304 308 309 311 310 313 312 315 314 311 312 313 313 315 315 314 312 313 311 310 309 311 308 307 308 306 306 305 304 304
297 297 298 299 297 296 303 294 298 303 300 299 305 306 304 304 305 307 310 311 310 314 313 314 312 312 313 314 313 314 312 314 314 313 311 308 310 306 305 303 303 301 301 304 306
297 297 297 299 296 294 293 293 300 301 288 300 305 304 303 304 305 307 306 309 311 311 312 311 312 313 314 313 313 313 312 312 313 311 310 310 309 308 303 304 303 301 305 307 306
297 296 296 297 297 293 292 299 303 297 289 302 301 299 299 301 306 307 309 306 308 310 310 309 306 310 311 312 312 311 312 309 311 311 313 309 310 307 303 306 307 308 310 308 309
296 294 295 295 295 292 293 303 302 293 296 297 296 296 297 298 300 299 305 300 307 312 311 309 310 310 310 312 311 313 313 315 317 315 311 299 306 306 304 304 305 306 307 306 304
296 293 292 292 291 291 298 305 300 298 294 294 295 297 298 295 297 297 304 300 296 298 304 312 307 308 307 311 312 312 314 309 309 310 309 306 308 305 300 297 299 298 298 299 301
293 293 292 291 294 292 299 298 295 295 292 293 294 296 294 293 296 297 297 298 295 296 300 299 306 298 300 298 304 311 314 308 304 304 303 307 306 300 297 296 295 295 295 296 297
293 292 292 292 292 295 294 295 295 294 292 292 292 293 292 290 293 295 296 293 294 294 294 295 298 297 298 299 298 303 302 313 315 311 310 305 304 301 296 294 293 293 293 294 296
293 288 292 292 291 289 291 293 293 292 292 291 291 290 290 289 290 294 294 293 292 292 292 292 294 295 297 296 297 299 297 299 304 304 307 304 303 298 294 293 292 292 292 293 295
291 289 292 291 290 286 289 290 292 291 291 290 290 290 289 289 290 292 294 292 291 291 291 292 294 294 293 297 295 294 295 295 300 303 299 299 305 295 291 291 291 291 292 292 293
290 290 291 291 291 290 290 291 291 291 291 291 291 290 288 288 289 291 291 291 290 290 290 292 293 291 297 298 293 294 293 295 295 293 297 301 301 294 292 291 292 292 292 292 293
288 288 288 286 287 288 292 290 290 291 291 290 290 290 290 289 289 288 290 290 290 290 293 291 291 290 291 291 291 291 291 292 293 293 293 291 292 292 291 291 291 292 292 293 292
286 287 289 290 290 287 286 289 290 290 290 289 290 290 290 287 289 289 289 289 290 290 288 288 287 290 291 291 291 291 288 289 291 292 292 291 290 290 289 290 290 289 289 290 291
288 290 287 286 288 286 286 289 290 290 290 290 290 290 289 290 291 289 289 290 290 288 287 287 284 289 288 289 290 288 284 286 287 288 289 288 289 286 286 286 286 286 286 287 289
290 290 287 286 288 284 289 289 289 289 289 290 290 290 290 290 289 289 287 288 289 290 289 287 285 288 286 288 289 284 283 284 286 284 284 286 283 282 283 284 283 283 284 285 288
Wind_Speed
17 17 18 18 18 18 18 18 18 17 16 16 16 16 16 16 18 15 10 14 9 17 15 13 8 6 4 2 3 3 3 3 5 7 4 2 3 2 1 2 3 4 6 5 17
18 19 19 20 20 20 20 20 19 18 17 16 16 16 15 16 19 16 30 13 14 23 18 17 7 7 3 4 3 4 4 9 7 5 5 4 3 4 2 3 4 5 5 6 8
20 21 22 22 22 22 22 21 21 20 18 17 15 14 14 15 6 8 2 18 17 26 19 16 13 5 4 3 5 6 7 5 5 6 4 3 2 4 6 7 8 10 8 7 9
22 23 23 23 23 24 23 23 21 20 18 16 14 12 12 4 6 1 1 16 21 22 14 11 5 7 6 7 5 4 8 5 3 4 3 4 2 4 8 14 5 11 7 5 9
24 25 25 26 26 26 26 25 23 21 18 15 12 9 3 2 11 14 7 15 22 24 18 8 6 6 6 5 4 4 3 5 9 8 7 3 10 8 8 18 9 8 9 11 10
26 27 28 29 30 30 28 26 24 21 19 15 11 6 3 7 7 8 13 23 24 28 16 11 8 6 5 5 6 3 4 5 6 7 6 6 7 7 11 3 11 10 11 12 11
28 30 31 33 32 30 29 27 25 22 19 15 11 9 11 18 7 5 21 27 25 28 7 16 7 6 5 2 2 2 5 7 7 6 8 6 7 10 22 5 11 10 9 10 12
30 32 33 35 33 31 31 29 26 23 19 15 11 12 9 14 8 20 23 23 23 21 4 19 11 3 4 2 5 1 1 3 3 5 6 9 8 7 9 7 10 10 8 8 12
32 33 35 36 34 34 32 27 23 12 4 4 8 9 9 6 6 20 26 15 18 14 11 5 9 5 3 5 4 1 6 7 7 8 4 8 3 6 4 4 6 10 9 9 12
32 34 36 35 33 30 25 20 6 3 4 7 2 4 7 3 4 8 21 16 5 7 3 4 3 4 7 7 10 8 6 4 4 2 3 6 13 9 13 7 9 14 12 9 11
33 35 36 35 31 24 20 4 5 3 3 8 6 5 5 7 2 3 21 11 5 5 9 7 11 16 19 18 8 5 3 3 1 4 7 9 16 9 12 8 9 13 14 11 13
34 36 37 34 28 15 9 4 5 6 12 14 20 18 27 7 5 2 19 9 8 11 7 5 22 9 5 9 12 10 9 13 5 5 4 8 23 11 10 16 14 17 18 10 7
36 37 38 30 16 11 7 9 15 10 7 7 5 5 6 14 13 7 14 8 9 10 16 13 3 18 15 8 10 15 14 3 7 5 5 7 18 8 8 12 9 10 8 7 10
38 37 36 30 3 15 4 20 16 4 4 6 3 5 3 5 5 17 19 11 6 16 9 13 14 6 7 14 11 16 7 11 8 2 3 1 7 5 7 8 5 6 8 8 7
40 39 34 17 9 7 18 23 13 4 3 1 3 4 8 4 3 2 9 3 10 8 8 8 6 8 15 14 12 8 7 8 9 4 2 4 2 8 2 6 6 8 5 6 6
39 39 31 7 7 19 24 14 2 4 8 5 7 9 10 6 4 7 3 3 5 6 6 13 3 6 5 2 12 6 3 4 1 3 5 11 8 5 2 3 7 6 4 6 3
42 33 14 10 7 28 17 2 1 4 11 10 10 11 7 10 7 9 5 7 0 10 17 8 12 4 5 9 7 6 7 3 6 4 5 1 4 7 10 14 10 7 10 12 10
41 15 22 19 27 18 3 3 5 7 6 8 8 6 8 15 8 15 6 4 11 7 2 10 3 8 1 14 7 9 7 5 7 5 3 3 6 3 6 11 16 18 13 18 17
35 12 27 38 22 1 3 1 5 5 8 9 5 7 8 10 8 12 7 6 10 11 5 5 1 4 5 5 1 7 7 5 5 3 3 4 3 4 15 20 19 19 20 18 17
19 13 21 38 17 8 5 6 2 5 7 5 7 8 8 11 9 13 7 11 6 10 8 6 4 8 7 4 12 5 4 4 4 6 4 2 1 3 13 16 17 19 16 16 17
10 4 28 29 11 7 4 3 1 8 7 5 6 5 4 5 5 3 7 3 8 7 7 6 4 7 8 7 7 4 5 4 2 1 5 4 2 5 7 7 12 13 13 10 10
6 4 27 25 9 3 3 4 7 10 4 6 5 5 4 5 5 5 3 1 8 6 4 4 2 4 3 11 13 13 7 7 3 2 2 1 3 10 7 9 12 12 13 10 8
3 2 13 20 6 5 6 6 5 9 5 6 4 5 5 5 4 4 3 2 9 7 3 4 2 3 1 4 5 6 7 5 4 1 5 1 2 8 12 16 15 14 14 12 12
3 4 4 4 2 3 5 7 11 6 3 7 3 4 5 4 2 5 6 3 7 4 8 4 2 2 2 1 2 3 8 6 3 2 5 4 7 9 18 18 16 16 17 17 13
4 1 1 4 7 6 5 7 9 10 5 6 5 10 6 3 4 2 3 8 6 9 4 3 2 2 3 4 3 6 12 10 2 4 4 5 14 13 14 16 13 13 18 20 18
3 3 4 3 4 5 7 4 11 12 3 5 7 11 6 2 1 5 4 1 3 6 4 4 0 1 3 3 5 9 17 15 10 7 5 11 10 15 15 15 17 20 20 20 20
4 2 2 5 5 3 5 8 10 9 5 3 4 5 6 4 9 7 3 4 5 4 4 4 2 3 3 1 6 5 16 12 12 12 9 7 10 18 22 21 19 18 20 20 21
Wind_Direction
350 345 342 338 337 334 331 327 324 321 320 320 323 325 321 317 306 291 237 236 217 182 167 164 167 158 135 132 137 127 80 225 235 167 232 160 138 180 118 172 213 217 157 220 176
347 344 341 337 333 330 325 322 318 317 316 316 319 322 321 322 307 250 267 226 195 175 168 164 168 143 139 178 175 128 160 219 209 195 187 174 162 185 181 197 249 277 261 222 185
345 342 339 334 330 324 320 317 315 313 313 313 314 319 323 328 303 251 13 183 180 176 176 177 158 134 163 151 199 180 210 206 233 208 167 194 214 204 187 235 203 218 227 239 234
343 338 335 331 326 321 317 313 310 308 306 307 308 312 320 322 280 347 197 178 170 178 175 164 136 154 184 201 197 189 239 200 242 210 182 196 195 239 197 244 191 216 211 203 219
342 338 334 330 325 321 316 311 307 304 300 297 299 304 324 238 248 257 220 180 179 192 183 167 156 151 187 207 176 235 253 223 249 266 264 255 235 235 247 253 244 234 220 234 231
343 339 335 331 326 321 316 311 306 300 295 290 283 275 215 251 241 252 198 175 181 181 193 167 190 180 198 207 182 251 247 264 266 254 243 229 253 158 251 231 230 236 230 234 233
344 341 337 333 329 324 318 313 307 300 291 281 265 223 229 240 202 171 190 189 190 190 170 201 182 157 153 229 247 283 310 310 219 218 230 188 268 227 246 209 245 241 241 239 231
345 342 339 335 330 325 319 312 305 298 287 272 241 211 245 255 268 247 213 198 201 200 214 207 182 155 180 179 16 338 138 279 296 163 246 153 260 271 264 176 237 262 255 249 262
346 343 340 336 331 327 320 315 311 310 287 180 168 201 257 292 233 243 203 180 186 196 214 169 151 177 124 123 354 286 246 217 322 205 138 186 260 262 354 179 257 273 253 244 258
344 342 339 336 333 333 329 322 349 96 97 152 212 235 262 244 206 195 190 179 148 137 142 158 143 185 189 169 219 200 231 244 223 125 190 230 256 278 293 241 256 269 273 254 259
344 342 340 337 336 340 344 355 13 350 335 208 208 244 280 334 200 182 181 153 112 143 184 192 207 214 207 211 219 108 225 242 298 301 339 280 275 254 257 257 242 262 269 258 259
343 343 341 338 338 355 16 50 29 306 295 252 255 252 262 299 323 278 168 167 171 196 133 180 230 208 200 208 229 254 265 266 257 242 250 295 283 266 252 256 238 250 263 245 259
342 341 341 336 338 354 43 42 346 334 271 274 225 245 219 191 221 230 174 168 188 184 192 209 218 198 199 199 213 234 239 234 245 309 269 291 283 260 254 251 240 244 250 253 238
341 339 340 337 359 343 317 332 337 326 295 275 263 272 186 148 243 205 195 165 200 203 167 230 236 226 197 221 202 244 189 228 235 226 227 100 291 323 292 297 255 227 254 249 238
340 337 336 334 308 346 318 320 327 137 346 303 115 347 321 196 315 193 197 218 184 160 168 211 168 201 227 225 187 228 159 207 223 210 214 208 309 276 322 331 311 298 231 222 228
342 335 337 341 299 334 329 325 149 52 249 349 15 7 355 5 336 324 154 58 168 192 217 215 208 163 191 173 210 213 200 92 45 193 261 207 177 277 310 349 342 354 43 36 42
342 339 359 335 295 323 325 299 196 186 346 5 336 333 327 343 346 356 28 36 204 211 227 221 232 189 185 258 249 174 165 180 212 191 224 257 111 249 339 352 320 347 14 9 8
345 1 3 343 328 311 301 216 204 57 10 339 327 325 35 7 7 344 31 60 24 357 313 209 213 176 270 215 186 187 184 175 180 186 196 156 210 19 13 37 40 43 26 21 13
347 8 0 350 352 318 106 76 27 17 314 329 327 15 9 9 353 353 58 26 23 5 13 351 205 336 60 13 313 171 200 187 105 22 89 199 228 35 17 24 24 28 23 12 6
344 330 356 360 11 46 56 81 47 277 325 345 15 18 8 0 23 5 34 1 14 30 25 12 301 39 1 345 24 22 360 164 182 165 199 217 301 89 20 10 10 15 13 1 360
9 14 352 5 34 42 73 63 340 351 5 35 15 21 350 1 333 78 10 356 24 10 48 11 16 336 30 21 3 12 25 330 295 79 166 152 222 146 76 18 13 2 357 349 344
2 29 354 6 45 22 29 343 351 347 350 12 4 11 357 345 1 40 83 258 342 340 6 356 20 20 340 91 81 72 45 29 339 42 21 137 135 140 72 26 10 356 347 343 340
360 296 3 29 34 6 330 1 360 4 14 9 333 38 2 351 351 28 8 249 17 356 336 330 115 10 267 180 62 44 27 51 308 335 49 18 179 180 7 5 0 352 344 346 343
32 10 340 26 67 9 354 358 1 2 343 351 350 25 350 340 334 316 314 328 348 305 343 41 54 132 229 334 355 41 31 21 93 14 353 279 307 341 343 346 354 354 355 348 342
25 33 9 338 2 356 22 355 353 355 345 354 357 351 333 294 309 281 3 327 342 358 27 64 133 77 265 282 2 5 29 1 330 207 230 291 300 356 4 353 6 352 347 339 336
60 1 3 317 324 11 357 338 356 350 287 336 349 327 321 264 290 297 320 333 317 347 32 10 359 136 294 228 206 78 15 359 11 5 330 332 291 6 6 351 351 342 339 325 320
41 2 89 329 333 32 12 338 342 350 303 316 314 311 316 5 318 288 272 22 24 6 350 5 32 42 305 302 124 44 7 347 335 326 317 331 10 354 342 334 328 322 313 306 306